Regional Weather Roundup
Issued by NWS State College, PA

Home | Current Version | Previous Version | Text Only | Print | Product List | Glossary Off
Versions: 1 2 3 4 5 6 7 8 9 10 11 12 13 14 15 16 17 18 19 20 21 22 23 24 25 26 27 28 29 30 31 32 33 34 35 36 37 38 39 40 41 42 43 44 45 46 47 48 49 50

000
ASUS41 KCTP 142310
RWRCTP

REGIONAL WEATHER ROUNDUP
NATIONAL WEATHER SERVICE STATE COLLEGE PA
700 PM EDT SUN SEP 14 2014

Note: "fair" indicates few or no clouds below 12,000 feet with no
significant weather and/or obstructions to visibility.

* = STATION THAT DOES NOT REPORT PRECIPITATION /E.G. RAIN...SNOW...ETC/
    THUNDER OR FOG.

PAZ002>004-007>009-013>016-020>023-029>032-150000-
WESTERN PENNSYLVANIA

CITY           SKY/WX    TMP DP  RH WIND       PRES   REMARKS
ERIE           CLEAR     59  42  53 NE7       30.23S
MEADVILLE      CLEAR     56  46  69 CALM      30.23S
FRANKLIN*      CLOUDY    61  43  51 CALM      30.24R
NEW CASTLE     MOCLDY    62  46  55 CALM      30.23S
BEAVER COUNTY  NOT AVBL
BUTLER*        CLEAR     61  45  55 CALM      30.24S
PITTSBURGH INT PTCLDY    62  44  51 W3        30.22S
PITTSBURGH     PTCLDY    62  42  47 S5        30.21S
INDIANA*       CLEAR     61  45  55 NW5       30.26R
LATROBE        CLEAR     63  46  55 CALM      30.22S
WASHINGTON CO* CLEAR     61  50  67 CALM      30.23R
$$

PAZ004>006-010>012-017>019-024>028-033>037-041-042-045-046-049>053-150000-
CENTRAL PENNSYLVANIA

CITY           SKY/WX    TMP DP  RH WIND       PRES   REMARKS
BRADFORD       MOCLDY    56  42  59 W7        30.23S
DUBOIS         PTCLDY    56  45  66 NW3       30.22R
CLEARFIELD     MOCLDY    57  45  64 NE5       30.23S
JOHNSTOWN      CLEAR     58  44  60 NW6       30.22R
ALTOONA        CLEAR     58  48  69 E3        30.22F
STATE COLLEGE  CLEAR     59  46  63 CALM      30.22F
WILLIAMSPORT   CLEAR     59  52  77 CALM      30.19F
SELINSGROVE    CLEAR     55  51  86 CALM      30.21S
FT INDIANTOWN  PTCLDY    61  50  67 W2        30.21F
CAPITAL CITY   MOCLDY    61  46  57 W5        30.21F
HARRISBURG     MOCLDY    62  50  64 CALM      30.21S
YORK           MOCLDY    61  46  57 NW3       30.22S
$$

PAZ038>040-043-044-047-048-054-055-060>062-067>071-150000-
EASTERN PENNSYLVANIA

CITY           SKY/WX    TMP DP  RH WIND       PRES   REMARKS
SCRANTON       PTCLDY    62  43  49 NW3       30.20F
MOUNT POCONO   MOCLDY    58  43  57 NW5       30.21F
ALLENTOWN      MOCLDY    63  46  54 W5        30.19F
QUAKERTOWN*    MOCLDY    63  48  59 MISG      30.21S
READING        MOCLDY    64  47  53 W5        30.20S
LANCASTER      MOCLDY    62  46  55 NW6       30.21S
COATESVILLE    PTCLDY    59  48  67 SW3       30.22S
POTTSTOWN      MOCLDY    62  49  62 CALM      30.22S
BLUE BELL      PTCLDY    63  52  67 CALM      30.19S
DOYLESTOWN     MOCLDY    64  47  53 NW3       30.19S
WILLOW GROVE   NOT AVBL
NORTH PHILA    MOCLDY    66  46  48 W3        30.21S
PHILADELPHIA   MOCLDY    67  49  52 SW7       30.20S
$$



USA.gov is the U.S. government's official web portal to all federal, state and local government web resources and services.